Temp
59 59 59 59 59 59 59 58 58 58 58 58 58 59 59 60 60 60 59 59 60 61 62 63 65 64 67 58 58 72 71 72 73 72 65 60 57 54 52 52 55 53 52 54 54 53 51
59 59 58 58 58 58 58 58 58 58 58 58 58 58 59 59 60 60 59 59 59 60 61 63 64 66 60 54 68 68 71 73 68 68 64 60 55 55 52 52 53 54 53 51 51 50 51
59 59 58 58 58 58 57 57 57 58 58 58 58 58 58 59 59 59 59 59 59 59 61 63 63 71 63 58 67 66 72 65 68 68 61 64 58 54 49 51 54 54 46 48 48 45 44
58 58 58 57 57 57 57 57 57 57 57 58 58 58 57 57 58 58 59 59 60 61 61 61 62 63 56 71 68 71 67 69 71 67 68 65 64 54 50 51 48 43 41 33 43 48 47
58 58 58 57 57 57 57 57 57 57 57 57 57 57 57 57 57 58 58 59 60 61 62 62 64 60 53 71 67 68 63 65 67 67 66 69 59 47 48 39 33 35 26 31 35 43 41
58 57 57 57 57 57 57 57 56 56 57 57 57 57 57 57 57 57 59 59 62 64 70 75 70 56 62 58 65 66 66 67 62 58 56 52 46 42 42 35 22 28 27 24 26 35 37
57 57 57 57 57 57 57 57 56 56 56 56 57 57 57 56 57 57 60 60 57 56 59 55 55 57 60 64 65 62 63 61 58 52 41 48 40 33 36 38 38 36 32 29 33 40 36
56 56 56 56 56 56 56 56 56 55 56 56 56 56 57 57 57 58 58 58 57 61 51 62 63 61 65 63 57 61 64 54 49 42 43 38 34 41 44 43 39 36 32 27 35 40 34
55 55 56 56 56 56 56 56 55 55 55 55 56 56 57 56 57 59 56 58 64 64 50 58 61 60 60 63 54 56 58 54 46 43 41 34 39 47 43 38 37 33 32 32 31 35 33
54 55 55 55 55 55 55 55 55 55 55 55 55 55 55 56 59 55 57 64 64 61 43 52 57 61 63 62 54 61 60 53 49 40 43 39 44 43 38 38 37 29 38 37 35 28 19
54 54 54 54 54 54 54 54 54 54 54 55 55 55 54 58 54 57 62 63 62 59 31 55 55 66 61 56 54 56 60 56 46 45 44 36 38 37 35 37 40 34 40 35 34 26 23
54 54 54 54 54 53 54 53 53 54 54 54 55 55 55 58 54 57 60 61 58 41 29 51 57 55 53 54 54 54 53 54 52 46 43 39 43 40 38 42 42 42 35 33 30 23 10
53 53 54 53 53 53 53 53 53 53 53 54 55 54 58 61 54 58 58 54 39 27 54 49 51 55 52 48 51 50 45 40 35 32 31 37 37 40 44 35 39 34 24 16 16 11 9
53 53 53 53 53 53 53 53 53 53 53 54 54 54 56 59 55 56 54 46 27 49 48 54 54 53 47 48 48 49 44 36 40 38 31 29 28 37 43 37 31 30 25 12 7 3 7
53 53 53 53 53 53 53 52 52 52 53 53 55 52 52 54 57 55 50 29 36 46 54 53 52 46 45 48 46 46 39 38 38 38 31 28 30 41 44 44 38 31 21 30 21 21 14
52 52 52 52 52 52 52 52 52 52 53 53 51 51 50 56 54 52 44 39 46 54 55 54 45 47 41 43 43 42 39 43 41 42 41 35 27 41 42 42 40 35 36 20 17 3 -1
52 52 52 52 52 52 52 52 52 52 52 53 51 49 53 56 54 48 35 40 49 56 56 50 47 46 46 43 43 41 40 43 44 43 40 36 31 33 40 31 28 28 26 25 23 18 3
52 52 52 52 52 52 52 52 52 52 52 53 49 44 54 54 46 39 38 49 53 52 54 52 50 48 44 45 43 42 41 43 46 43 35 36 31 25 31 38 41 34 31 29 16 19 19
52 51 52 52 52 52 52 52 52 52 52 48 47 46 53 54 33 30 45 50 52 51 50 49 47 48 46 43 37 43 42 45 45 42 36 35 28 21 27 30 34 31 33 33 29 21 6
51 51 51 51 51 51 52 51 51 52 52 48 47 38 45 45 44 43 43 44 45 51 50 52 49 49 43 41 44 40 40 43 45 42 46 40 28 27 20 26 28 26 31 32 25 14 8
51 51 51 51 51 51 51 51 51 51 51 49 45 42 46 32 38 43 44 47 44 44 49 49 45 46 43 37 39 39 42 41 43 45 38 34 27 29 31 34 34 29 30 32 21 16 18
51 51 50 50 51 51 51 51 51 51 52 49 44 45 45 43 48 46 43 43 45 47 46 44 43 47 46 40 41 37 41 38 36 36 35 33 27 30 29 34 27 30 31 31 31 19 19
51 51 51 51 51 51 51 50 50 51 52 47 46 48 48 43 44 41 41 47 48 49 48 51 47 44 42 44 43 42 42 42 40 34 32 31 28 28 25 30 26 21 30 29 29 29 21
51 51 51 51 51 51 50 50 50 50 49 44 45 45 42 37 43 46 51 51 48 48 45 48 47 43 44 49 46 43 42 43 41 39 38 33 31 29 25 27 11 32 40 36 28 34 28
51 51 51 51 50 50 50 50 50 50 51 45 44 45 43 36 45 50 50 46 47 46 45 44 45 46 46 42 35 34 32 35 39 41 38 38 32 25 16 20 28 35 36 32 29 29 35
51 51 51 50 50 49 49 50 50 50 51 45 43 45 45 39 40 50 47 46 38 36 39 41 45 46 43 36 31 22 25 33 33 37 42 38 34 26 24 19 13 30 38 40 36 19 37
50 50 50 50 50 49 49 49 49 50 50 44 44 46 43 37 43 44 41 42 44 38 33 38 38 37 38 30 22 25 28 39 30 31 30 29 28 23 22 16 23 37 40 41 25 28 37
50 50 50 50 50 49 49 49 49 50 50 45 45 45 42 39 40 47 47 42 43 39 33 38 36 35 30 27 27 27 27 33 32 36 32 30 24 21 23 17 15 40 38 31 34 35 39
50 50 50 50 50 49 49 49 49 50 50 48 43 47 47 38 41 47 47 47 45 45 38 37 38 36 34 28 26 27 29 28 31 28 38 30 33 28 28 28 37 41 40 43 39 38 39
MSLP
1023.15 1022.91 1022.71 1022.48 1022.26 1022.03 1021.80 1021.60 1021.43 1021.21 1020.98 1020.75 1020.52 1020.32 1020.10 1019.84 1019.60 1019.35 1019.11 1018.79 1018.42 1018.10 1017.90 1017.47 1016.81 1016.48 1016.55 1017.38 1018.91 1017.93 1017.23 1016.46 1016.03 1014.97 1015.35 1015.42 1015.94 1016.54 1017.28 1017.83 1018.07 1019.33 1020.59 1021.66 1022.54 1023.09 1023.72
1023.45 1023.19 1023.01 1022.75 1022.48 1022.25 1022.01 1021.79 1021.58 1021.32 1021.10 1020.84 1020.64 1020.46 1020.25 1019.96 1019.68 1019.50 1019.30 1019.01 1018.77 1018.48 1018.18 1017.99 1017.74 1017.06 1017.61 1017.89 1019.04 1018.28 1017.68 1017.12 1017.07 1016.53 1016.92 1016.90 1017.78 1017.43 1018.27 1018.78 1019.56 1020.87 1021.96 1023.08 1023.89 1024.49 1025.15
1023.71 1023.43 1023.23 1023.00 1022.71 1022.45 1022.20 1021.99 1021.76 1021.52 1021.24 1020.99 1020.78 1020.59 1020.36 1020.17 1019.93 1019.74 1019.49 1019.20 1018.89 1018.57 1018.36 1018.15 1018.13 1017.86 1017.87 1019.59 1019.05 1018.42 1018.07 1018.19 1018.19 1018.01 1018.33 1018.24 1017.96 1017.55 1019.06 1019.75 1020.86 1021.45 1022.53 1024.09 1024.83 1025.17 1026.23
1024.07 1023.73 1023.50 1023.32 1023.01 1022.72 1022.51 1022.28 1022.03 1021.73 1021.44 1021.25 1021.04 1020.86 1020.71 1020.54 1020.10 1019.74 1019.49 1019.13 1018.84 1018.60 1018.60 1018.56 1018.52 1018.58 1019.28 1019.18 1018.75 1018.52 1018.89 1019.17 1018.76 1018.77 1019.03 1019.38 1018.42 1018.77 1020.35 1021.10 1022.35 1023.60 1024.41 1025.91 1026.60 1026.22 1026.33
1024.51 1024.19 1023.88 1023.65 1023.36 1023.00 1022.79 1022.54 1022.28 1021.98 1021.65 1021.41 1021.17 1020.94 1020.90 1020.62 1020.29 1019.98 1019.69 1019.29 1018.89 1018.68 1018.35 1018.32 1018.59 1018.94 1020.06 1019.41 1019.24 1019.39 1019.28 1019.71 1019.62 1019.84 1020.29 1020.02 1019.86 1021.87 1022.36 1023.73 1025.24 1026.61 1027.41 1027.73 1027.63 1027.60 1027.49
1024.92 1024.59 1024.24 1023.96 1023.67 1023.30 1023.05 1022.79 1022.51 1022.22 1021.89 1021.61 1021.33 1021.07 1020.94 1020.75 1020.39 1020.12 1019.68 1019.43 1018.91 1018.57 1018.35 1018.38 1019.06 1020.04 1020.80 1020.91 1020.42 1020.22 1019.84 1019.74 1020.21 1020.64 1021.19 1022.19 1023.31 1024.59 1025.80 1026.49 1028.09 1028.82 1029.00 1029.07 1028.89 1028.55 1028.79
1025.33 1024.98 1024.63 1024.31 1023.99 1023.65 1023.33 1023.07 1022.79 1022.49 1022.20 1021.85 1021.48 1021.15 1020.91 1020.84 1020.60 1020.33 1019.90 1019.51 1020.00 1020.23 1020.17 1020.68 1021.36 1021.44 1021.39 1021.02 1020.43 1020.59 1020.45 1020.59 1021.45 1022.30 1023.81 1024.71 1024.64 1026.04 1027.35 1027.66 1028.41 1029.05 1029.48 1029.65 1028.99 1028.42 1029.29
1025.70 1025.33 1024.95 1024.63 1024.28 1023.92 1023.61 1023.34 1023.01 1022.71 1022.43 1022.15 1021.80 1021.43 1020.95 1020.69 1020.51 1020.38 1020.36 1020.75 1020.93 1020.97 1021.72 1021.40 1021.34 1021.47 1021.35 1021.11 1021.28 1021.35 1020.75 1021.70 1023.15 1024.40 1024.83 1026.00 1026.79 1027.91 1028.09 1028.38 1028.83 1029.47 1029.87 1030.01 1029.19 1029.01 1029.82
1026.09 1025.69 1025.31 1024.99 1024.64 1024.28 1023.90 1023.60 1023.25 1022.89 1022.58 1022.33 1022.01 1021.73 1021.38 1021.02 1020.62 1020.74 1021.09 1020.96 1020.69 1020.59 1021.50 1021.73 1021.47 1021.41 1021.44 1021.51 1022.26 1022.24 1022.19 1023.30 1024.47 1025.48 1026.18 1027.08 1028.58 1028.44 1028.51 1028.84 1029.22 1029.54 1030.02 1030.14 1030.02 1030.42 1031.35
1026.40 1026.01 1025.66 1025.31 1024.93 1024.55 1024.11 1023.73 1023.33 1022.94 1022.66 1022.44 1022.13 1021.88 1021.57 1021.15 1021.21 1021.39 1021.35 1020.94 1020.46 1020.61 1021.72 1022.17 1021.67 1021.54 1021.57 1021.70 1022.50 1022.41 1022.55 1023.21 1024.33 1026.05 1026.67 1028.04 1028.69 1028.78 1028.95 1029.09 1029.35 1029.54 1029.88 1030.14 1030.29 1030.83 1032.22
1026.73 1026.33 1025.94 1025.57 1025.15 1024.71 1024.27 1023.81 1023.44 1023.06 1022.73 1022.45 1022.18 1021.95 1021.70 1021.48 1021.80 1021.80 1021.68 1020.99 1020.61 1021.12 1022.07 1022.13 1021.83 1021.51 1021.76 1022.22 1022.95 1023.00 1023.26 1023.66 1024.90 1025.94 1026.83 1028.55 1028.89 1029.03 1029.14 1029.42 1029.37 1030.09 1030.03 1030.36 1030.84 1031.87 1033.01
1027.05 1026.62 1026.20 1025.80 1025.38 1024.95 1024.50 1024.08 1023.61 1023.21 1022.83 1022.49 1022.23 1021.98 1021.71 1021.76 1022.24 1021.98 1021.55 1021.07 1021.44 1022.29 1022.33 1022.10 1021.86 1021.98 1022.33 1022.69 1023.10 1023.69 1024.33 1024.50 1025.55 1026.78 1027.62 1028.55 1028.72 1028.90 1029.02 1029.33 1029.61 1030.10 1030.38 1030.95 1031.84 1033.24 1034.46
1027.29 1026.95 1026.52 1026.08 1025.60 1025.15 1024.66 1024.22 1023.78 1023.30 1022.90 1022.55 1022.29 1022.01 1021.71 1021.85 1022.42 1022.04 1021.67 1022.25 1023.11 1023.26 1022.48 1022.39 1022.07 1022.08 1022.57 1023.16 1023.55 1024.25 1025.58 1026.45 1027.44 1028.01 1028.65 1028.98 1029.02 1028.93 1028.99 1029.53 1030.05 1030.68 1031.62 1032.85 1033.88 1035.23 1036.02
1027.59 1027.21 1026.79 1026.34 1025.84 1025.31 1024.80 1024.24 1023.80 1023.37 1022.90 1022.59 1022.32 1022.14 1022.18 1022.12 1022.21 1022.05 1022.61 1023.77 1023.77 1022.99 1022.51 1022.06 1022.10 1022.42 1022.98 1023.46 1024.01 1024.76 1026.03 1027.47 1028.09 1028.47 1029.00 1029.37 1029.04 1029.07 1029.04 1029.63 1030.50 1031.36 1032.62 1034.36 1036.30 1037.18 1037.08
1027.91 1027.46 1027.04 1026.61 1026.08 1025.50 1024.96 1024.34 1023.80 1023.39 1022.96 1022.57 1022.30 1022.59 1022.58 1022.46 1022.15 1022.38 1023.33 1024.52 1024.09 1023.22 1022.39 1022.21 1022.34 1022.74 1023.27 1023.72 1024.34 1025.18 1026.56 1027.69 1028.40 1028.73 1029.46 1029.68 1029.30 1028.91 1029.01 1029.43 1030.37 1031.39 1032.84 1034.00 1035.84 1037.08 1037.91
1028.23 1027.75 1027.28 1026.83 1026.36 1025.71 1025.14 1024.51 1023.93 1023.40 1023.02 1022.72 1022.86 1023.15 1022.96 1022.34 1022.38 1022.91 1024.07 1024.54 1023.97 1023.18 1022.67 1022.32 1022.61 1022.81 1023.51 1024.14 1024.75 1025.43 1026.79 1027.75 1028.43 1028.86 1029.23 1029.93 1029.89 1029.02 1029.17 1029.64 1030.37 1031.11 1032.39 1034.05 1036.23 1038.11 1039.03
1028.51 1028.06 1027.58 1027.05 1026.59 1025.94 1025.35 1024.68 1024.08 1023.47 1022.92 1022.67 1023.10 1023.58 1022.99 1022.52 1022.70 1023.90 1024.71 1024.36 1023.75 1023.27 1022.88 1022.97 1023.08 1023.29 1023.80 1024.40 1024.95 1025.78 1026.90 1027.99 1028.40 1028.95 1029.32 1029.95 1030.56 1029.88 1029.62 1029.92 1030.40 1031.36 1032.41 1033.96 1035.78 1037.57 1039.05
1028.78 1028.32 1027.85 1027.34 1026.84 1026.22 1025.62 1024.93 1024.27 1023.63 1022.93 1022.77 1023.53 1023.75 1023.05 1022.95 1023.78 1024.69 1024.85 1023.93 1023.46 1023.41 1023.16 1023.24 1023.37 1023.77 1024.30 1024.73 1025.26 1026.00 1026.92 1027.58 1028.38 1029.01 1029.79 1030.52 1031.08 1031.09 1030.40 1030.02 1030.17 1030.96 1031.77 1033.28 1035.42 1036.74 1037.66
1028.96 1028.59 1028.03 1027.59 1027.03 1026.46 1025.86 1025.22 1024.54 1024.00 1023.46 1023.62 1024.16 1024.06 1023.50 1023.43 1024.72 1025.47 1024.62 1024.01 1023.61 1023.57 1023.45 1023.55 1023.95 1024.29 1024.68 1025.13 1025.77 1026.19 1027.17 1027.99 1028.52 1029.23 1030.04 1030.76 1031.50 1031.59 1030.75 1030.82 1030.58 1030.97 1031.39 1032.40 1033.99 1035.69 1036.93
1029.19 1028.85 1028.30 1027.82 1027.30 1026.69 1026.06 1025.37 1024.73 1024.24 1023.76 1023.71 1024.34 1024.82 1024.56 1024.50 1024.88 1024.85 1024.69 1024.35 1024.10 1023.80 1023.79 1023.85 1024.22 1024.50 1024.99 1025.41 1025.82 1026.49 1027.42 1028.28 1028.86 1029.59 1030.18 1030.85 1031.67 1031.80 1031.44 1030.60 1030.64 1030.94 1030.97 1031.76 1033.24 1035.11 1035.85
1029.38 1029.02 1028.58 1028.04 1027.53 1026.85 1026.20 1025.50 1024.70 1024.09 1023.55 1023.65 1024.39 1024.65 1024.30 1025.40 1025.01 1024.66 1024.43 1024.24 1024.25 1024.14 1024.06 1024.08 1024.51 1024.72 1025.18 1025.71 1026.18 1026.73 1027.38 1028.50 1029.32 1029.88 1030.68 1031.38 1031.90 1031.67 1030.95 1030.37 1030.30 1030.07 1030.11 1030.86 1032.33 1032.96 1034.17
1029.50 1029.16 1028.76 1028.25 1027.67 1027.05 1026.39 1025.71 1024.86 1023.95 1023.20 1023.59 1024.20 1024.39 1024.49 1024.72 1024.26 1024.44 1024.42 1024.34 1024.08 1024.15 1024.29 1024.50 1024.75 1024.82 1025.27 1025.77 1026.21 1026.80 1027.31 1028.20 1029.11 1030.45 1030.96 1031.54 1031.69 1031.53 1030.92 1029.87 1029.81 1029.42 1029.08 1029.58 1030.34 1031.73 1032.26
1029.56 1029.24 1028.91 1028.48 1027.89 1027.28 1026.64 1025.96 1025.17 1024.10 1023.04 1023.91 1024.11 1023.95 1024.20 1024.84 1024.45 1024.56 1024.28 1023.80 1023.76 1023.81 1024.36 1024.30 1024.65 1025.11 1025.58 1025.97 1026.36 1026.72 1027.15 1027.70 1028.48 1029.60 1030.72 1031.38 1031.81 1031.81 1030.82 1030.15 1029.64 1028.86 1027.36 1028.10 1028.64 1029.35 1030.07
1029.59 1029.27 1028.97 1028.64 1028.13 1027.52 1026.94 1026.30 1025.65 1024.93 1024.36 1024.51 1024.60 1024.64 1024.90 1025.11 1024.67 1024.20 1023.65 1023.62 1023.89 1024.05 1024.43 1024.91 1025.11 1025.55 1026.22 1026.25 1026.54 1026.92 1027.43 1027.79 1028.40 1028.97 1029.58 1030.51 1031.30 1031.76 1031.36 1030.39 1029.24 1026.48 1026.05 1026.25 1027.20 1027.69 1028.29
1029.55 1029.27 1029.03 1028.76 1028.36 1027.79 1027.22 1026.66 1026.06 1025.40 1024.69 1024.50 1024.63 1024.77 1024.97 1025.22 1024.66 1023.99 1023.77 1023.97 1024.47 1024.75 1025.19 1025.72 1026.16 1026.47 1026.60 1027.00 1027.82 1028.10 1028.12 1028.04 1027.76 1028.18 1029.06 1029.72 1030.92 1031.85 1032.02 1031.31 1028.40 1025.83 1025.60 1025.81 1026.38 1026.52 1026.49
1029.43 1029.25 1029.00 1028.79 1028.48 1028.02 1027.49 1026.99 1026.48 1025.82 1025.17 1024.72 1024.81 1024.82 1024.88 1025.21 1024.98 1024.33 1024.05 1024.14 1024.94 1025.82 1026.23 1026.77 1026.97 1027.01 1027.37 1028.39 1029.29 1029.64 1028.99 1028.15 1027.82 1027.85 1028.37 1029.64 1030.47 1031.75 1032.08 1031.73 1029.24 1025.60 1025.01 1025.04 1025.71 1026.01 1025.30
1029.18 1029.13 1028.95 1028.76 1028.53 1028.16 1027.68 1027.24 1026.78 1026.24 1025.60 1025.27 1024.94 1024.71 1025.01 1025.68 1024.96 1024.42 1024.19 1024.44 1024.52 1025.78 1026.89 1027.27 1027.53 1027.85 1028.28 1029.56 1030.58 1030.75 1029.66 1028.12 1028.08 1028.00 1028.64 1029.78 1030.67 1031.17 1031.47 1031.15 1027.85 1024.75 1024.64 1025.01 1025.44 1024.68 1024.50
1028.89 1028.84 1028.83 1028.70 1028.49 1028.20 1027.81 1027.42 1027.03 1026.51 1025.88 1025.57 1025.28 1024.87 1025.07 1025.72 1025.22 1024.60 1024.38 1024.27 1024.58 1025.26 1026.69 1027.47 1028.18 1028.67 1029.56 1030.35 1030.92 1030.73 1030.03 1028.77 1028.20 1027.38 1027.46 1028.20 1029.14 1029.75 1030.22 1029.65 1026.21 1023.80 1024.53 1024.43 1023.20 1023.28 1023.62
1028.51 1028.49 1028.51 1028.54 1028.45 1028.20 1027.91 1027.55 1027.15 1026.64 1026.04 1025.52 1025.74 1025.14 1025.02 1025.59 1025.45 1024.78 1024.47 1024.31 1024.34 1024.63 1025.60 1026.78 1027.24 1027.80 1028.64 1029.76 1030.57 1030.59 1030.39 1029.39 1028.59 1027.72 1026.46 1026.86 1025.99 1026.39 1026.90 1024.71 1022.75 1022.35 1021.63 1021.51 1021.97 1022.45 1022.89
Wind_Speed
17 16 16 15 14 14 13 13 12 11 11 10 10 9 9 9 10 10 9 10 12 12 12 15 18 12 9 12 4 10 14 13 12 25 21 9 16 6 7 4 7 12 6 15 20 18 18
17 17 16 16 15 15 14 13 12 11 11 10 10 9 9 10 10 11 13 13 13 13 12 11 14 10 6 24 8 11 9 18 14 23 23 14 5 1 6 5 12 10 22 13 11 13 14
17 17 17 16 16 15 15 13 13 12 11 11 10 11 11 11 12 11 11 10 11 11 13 15 12 4 21 5 6 8 10 7 13 21 22 17 5 10 0 4 3 8 13 20 17 6 8
18 17 17 16 16 15 14 14 13 13 11 10 10 10 10 10 10 9 10 11 11 11 10 6 8 7 8 7 6 16 7 19 21 10 20 14 15 9 7 3 9 9 8 7 7 15 7
17 17 17 16 15 14 14 14 14 13 13 11 11 10 10 9 8 9 10 11 11 9 10 8 6 8 5 12 11 9 5 13 19 22 17 17 19 10 14 10 8 10 3 5 10 6 4
18 18 17 17 16 15 15 14 14 14 13 12 11 11 10 9 9 10 11 7 11 10 5 3 4 7 9 4 6 7 8 6 11 7 15 12 9 13 12 9 5 4 4 4 4 7 11
18 18 18 17 16 16 15 14 14 13 12 13 12 12 11 7 7 8 7 5 8 10 12 8 3 8 4 5 5 9 4 4 7 10 6 13 14 20 14 10 6 8 7 7 8 8 6
18 18 18 18 17 17 16 15 14 13 13 12 12 12 13 10 9 7 4 6 2 8 6 4 5 5 2 3 8 17 9 8 9 11 4 8 18 9 8 10 8 8 7 4 11 11 11
18 18 18 18 18 17 16 15 14 13 12 11 11 11 10 9 10 6 1 2 2 6 6 1 0 3 1 8 4 9 6 6 9 11 13 10 3 7 7 10 7 2 10 11 6 11 8
18 18 18 19 19 18 17 16 15 15 13 11 11 10 9 10 9 4 3 4 5 5 6 1 5 5 4 4 5 4 5 3 5 6 7 8 4 6 5 9 5 5 8 8 6 4 2
17 18 18 19 19 19 18 17 16 15 14 12 11 10 9 6 2 3 5 4 5 6 5 1 2 1 4 6 2 5 6 7 5 5 5 1 3 3 4 2 4 4 7 5 3 4 4
17 18 19 19 19 18 18 16 15 14 13 11 11 10 9 4 3 3 5 6 6 8 1 0 3 4 2 3 3 3 7 8 4 7 7 4 3 1 2 0 6 7 6 5 5 3 4
17 18 19 19 19 19 18 17 16 14 12 11 10 11 4 2 2 6 4 5 7 8 2 2 2 2 3 1 3 4 5 9 5 2 2 2 2 2 1 3 6 8 5 3 6 7 6
16 17 18 19 19 19 19 18 16 14 11 10 10 8 6 2 1 4 4 7 8 4 2 1 3 1 3 1 1 3 4 3 6 5 4 4 4 4 3 3 2 4 5 6 4 3 8
16 17 18 19 19 20 20 19 17 14 12 11 5 3 3 4 2 4 7 6 7 1 2 3 1 3 1 1 1 5 3 2 1 3 3 4 4 1 1 2 5 4 4 4 2 3 2
16 17 17 18 20 20 19 19 17 15 12 9 3 2 3 3 3 5 7 3 2 3 4 3 1 0 3 2 2 2 4 1 3 1 4 1 4 3 3 3 3 5 4 4 3 2 6
17 17 17 18 19 19 19 19 18 16 14 1 4 4 4 1 4 6 4 4 3 3 4 4 2 2 3 2 1 2 3 1 2 1 2 3 3 4 4 4 6 2 0 2 4 5 4
16 17 17 18 19 20 20 19 18 18 16 5 2 3 4 3 5 2 3 2 2 1 2 2 3 3 2 1 1 2 3 3 4 3 2 1 3 4 4 2 3 3 6 5 5 4 4
15 16 17 18 19 19 19 19 18 16 12 3 3 1 3 5 4 2 3 2 3 2 1 1 2 3 1 2 0 2 4 4 6 3 6 3 1 4 2 4 4 5 5 5 3 4 6
13 15 17 18 19 19 19 19 18 15 10 3 4 3 5 5 1 7 4 3 2 2 2 4 4 3 2 1 2 4 3 5 6 3 7 4 3 6 7 8 3 5 5 6 6 3 5
11 13 15 16 18 18 20 20 20 19 12 3 3 4 5 3 4 4 4 7 4 4 1 1 1 4 4 2 2 3 4 3 3 8 4 4 4 4 8 14 11 10 14 9 9 8 7
10 11 13 15 17 18 20 21 21 21 9 4 4 3 3 2 1 6 3 7 8 4 6 3 4 3 6 5 4 4 4 6 6 1 5 3 4 3 8 11 7 10 10 10 11 4 9
9 10 12 14 16 19 20 21 22 23 9 3 2 2 5 4 2 5 5 6 9 8 3 3 6 2 4 4 3 4 2 3 7 9 7 6 3 3 6 3 6 7 10 7 5 5 7
9 9 11 13 16 18 20 20 21 20 13 2 1 3 5 3 2 5 3 3 6 3 8 3 3 4 2 2 1 1 2 4 6 6 7 5 3 2 5 7 4 7 4 6 9 6 8
8 8 10 12 14 16 17 19 20 20 19 3 1 3 3 1 2 3 5 6 4 4 3 3 3 2 2 3 4 5 4 3 4 6 7 5 4 2 1 2 11 6 3 5 7 9 7
8 8 7 8 10 13 15 17 18 19 20 2 1 1 3 6 4 4 3 5 5 3 3 2 2 1 5 4 4 3 3 4 2 1 4 5 4 5 1 2 6 6 3 4 4 6 6
7 8 7 7 8 10 13 15 17 18 19 3 2 1 5 4 3 2 3 6 5 4 3 2 3 2 4 3 3 3 4 3 3 4 5 3 3 7 3 5 11 10 7 4 3 8 6
9 8 8 7 7 9 11 13 15 17 18 6 3 2 5 3 4 3 3 2 3 4 6 4 5 3 3 3 4 4 3 4 1 4 7 9 7 5 3 2 12 7 5 7 9 4 8
9 8 8 8 7 7 9 11 13 16 17 7 2 3 1 4 5 1 2 1 1 4 7 3 5 5 6 5 0 2 2 1 3 5 1 4 9 7 11 11 7 14 9 11 7 7 7
Wind_Direction
38 38 36 35 34 33 34 33 30 26 21 21 18 15 7 5 354 343 339 340 345 348 355 360 2 6 38 58 34 302 323 20 18 38 35 23 35 15 60 7 71 86 99 64 88 85 81
39 39 35 33 32 32 32 30 29 25 21 20 18 9 4 1 343 343 351 348 343 342 348 4 360 8 77 60 308 318 349 49 41 48 31 38 13 23 67 57 56 75 73 67 62 85 74
38 38 36 32 30 30 29 28 26 24 21 16 14 8 2 354 352 359 354 343 339 341 350 347 8 66 56 22 325 356 26 65 61 56 49 22 349 67 59 70 44 91 83 62 31 4 117
37 37 36 32 30 30 28 25 22 20 16 15 13 9 4 8 2 355 346 336 327 322 331 351 345 57 79 300 351 20 10 61 56 51 54 38 10 90 51 6 29 29 45 36 27 31 2
37 37 36 33 29 28 29 25 20 15 13 10 9 5 12 10 360 355 336 320 309 327 302 301 54 92 27 322 25 322 52 103 79 59 34 39 33 30 23 42 34 17 15 28 343 30 7
36 35 35 32 29 27 27 24 18 12 8 7 3 360 7 13 1 350 332 324 307 357 9 41 63 49 359 341 336 343 356 51 52 44 32 24 62 66 48 53 68 1 36 316 316 307 71
35 34 33 31 29 26 23 20 16 9 6 4 358 356 354 9 349 358 6 14 23 2 31 102 127 114 331 295 46 356 329 59 39 58 69 28 52 44 33 31 80 74 35 345 308 280 50
34 32 30 27 26 24 20 14 11 9 4 3 359 355 346 346 343 354 55 75 192 173 67 53 84 95 109 5 31 351 22 72 45 56 55 29 50 31 48 34 55 55 13 307 291 349 100
34 32 29 25 23 21 19 11 4 7 0 357 359 357 346 330 328 46 53 52 268 112 95 274 131 68 88 65 30 346 46 90 87 70 72 83 62 40 51 30 25 33 16 338 305 96 83
31 30 27 23 21 18 16 12 3 1 356 353 355 357 350 327 41 315 7 303 38 80 76 349 328 348 10 136 44 15 16 77 54 149 101 84 21 61 45 43 12 10 331 335 326 76 68
30 27 26 22 19 16 12 9 3 356 351 347 349 355 353 33 193 58 310 313 37 55 51 117 45 226 4 85 227 348 20 32 54 16 70 209 59 59 49 24 5 292 333 292 58 74 109
27 25 23 21 17 15 12 6 1 357 349 344 343 349 340 42 38 297 317 28 44 45 24 125 142 171 58 23 30 87 27 35 46 56 41 102 177 83 166 353 65 303 354 23 38 80 36
27 23 21 18 15 12 11 7 360 358 353 347 346 342 30 72 189 314 18 40 43 97 182 173 176 139 107 29 3 70 63 29 53 52 47 168 214 255 155 50 15 28 43 350 6 8 233
26 22 18 16 13 11 8 7 1 358 358 352 342 352 338 109 336 26 52 53 77 177 170 190 133 150 135 53 261 60 89 41 20 52 53 28 324 205 178 124 221 53 92 130 251 267 268
23 21 17 12 11 10 7 5 4 359 357 350 341 9 24 300 5 67 72 56 192 318 4 155 127 171 161 340 130 91 58 94 42 47 83 32 284 72 138 114 120 345 26 177 185 271 308
22 19 15 10 7 8 5 5 3 360 355 350 78 54 313 260 61 65 74 194 175 22 0 8 203 200 146 188 126 90 151 350 141 66 124 201 300 204 176 123 5 132 198 23 19 343 296
20 17 13 10 5 4 3 5 3 358 349 39 60 61 265 32 66 51 132 215 123 26 60 56 27 72 84 134 175 122 134 139 99 200 9 49 104 286 125 190 184 1 31 72 168 144 190
16 14 11 9 5 2 3 3 3 0 350 73 90 64 285 48 59 37 134 147 122 147 11 40 92 67 96 113 9 131 162 160 164 142 109 1 155 271 257 308 160 200 202 153 127 255 213
12 10 12 6 5 360 1 1 3 2 9 111 96 174 333 85 126 308 272 81 83 155 148 118 103 71 35 149 168 136 143 164 159 131 162 159 231 311 264 334 325 249 228 194 148 81 216
4 4 8 6 3 1 358 0 359 356 355 89 92 51 331 42 131 139 153 191 149 49 74 80 130 97 81 274 214 201 168 190 175 113 137 114 182 190 205 222 184 267 234 194 156 148 218
357 358 0 3 1 358 357 358 358 353 343 122 68 234 191 249 297 178 140 167 147 191 51 120 88 186 176 216 189 230 129 103 140 154 129 127 243 214 249 257 256 253 272 248 199 205 180
354 355 357 0 1 359 358 357 357 356 0 79 127 123 9 191 155 123 137 210 173 161 147 230 198 225 193 181 194 208 162 163 196 185 155 178 271 259 280 276 275 274 260 239 236 201 259
353 354 357 359 2 2 360 358 359 1 359 90 312 352 104 280 85 101 221 211 200 139 208 146 190 161 204 190 163 195 208 158 157 157 189 164 199 344 268 302 294 310 252 206 224 201 169
345 350 358 360 2 3 359 359 359 6 21 120 219 109 88 261 152 196 226 183 144 169 149 157 83 134 181 47 337 181 253 239 193 206 168 163 143 158 284 344 350 238 226 197 194 229 214
332 340 350 356 358 0 358 357 357 1 6 86 353 105 122 200 227 261 115 117 92 42 77 90 46 134 129 56 38 1 344 355 253 214 193 167 116 292 252 230 282 297 186 174 166 273 215
312 326 336 346 350 353 356 357 355 359 2 74 19 171 100 120 258 300 169 172 147 130 46 67 28 23 73 84 76 130 248 255 298 99 162 114 101 133 35 310 256 236 188 131 112 290 213
290 306 316 331 342 346 352 355 354 356 359 12 304 48 89 118 267 31 164 182 131 105 130 153 184 80 64 97 100 167 251 222 235 197 172 156 204 202 180 248 280 247 164 162 89 248 179
273 286 296 305 327 339 346 351 352 355 357 6 267 350 115 145 288 21 10 113 68 112 144 204 54 337 53 103 137 225 184 246 294 216 181 175 162 201 171 210 279 153 89 172 211 178 172
256 267 276 285 301 324 339 345 350 355 358 5 26 321 94 111 215 266 125 150 144 176 133 176 178 161 181 97 266 86 271 312 180 266 196 224 193 182 181 217 224 195 200 212 171 164 199